Tracking 19149 objects as of 21-Apr-2018
HD Live streaming from Space Station
objects crossing your sky now

FENGYUN 1C DEB

Track FENGYUN 1C DEB now!
10-day predictions


NORAD ID: 37430
Int'l Code: 1999-025EGY
Perigee: 833.2 km
Apogee: 869.7 km
Inclination: 99.0 °
Period: 101.8 minutes
Semi major axis: 7222 km
RCS: 0.0066 m2 (small)
Launch date: May 10, 1999
Source: People's Republic of China (PRC)
Launch site: Taiyaun Space Center, China (TSC)

Note: This is SATELLITE DEBRIS
aabbcc
Your satellite tracking list
Your tracking list is empty




NASA's NSSDC Master Catalog

Two Line Element Set (TLE):
1 37430U 99025EGY 18111.31028507  .00000685  00000-0  37997-3 0  9997
2 37430  98.9845 148.6702 0025312 130.6973 229.6404 14.14416461536465
Source of the keplerian elements: AFSPC